[[{"header":{"parameterUnit":"m.s-1","parameterCategory":1,"la1":30.2991,"la2":30.254,"lo1":-89.0895,"lo2":-89.0444,"dy":0.0017,"dx":0.0017,"nx":28,"ny":28,"refTime":"2025-05-19T03:00:00:Z","depth":0,"parameterNumber":2,"parameterNumberName":"U-component_of_WINDS"},"data":[0,0,0,0,0,0,0,0,0,0,0,0,0,0,0,0,0,0,0,0,0,0,0,0,0,0,0,0,0,0,0,0,0,0,0,0,0,0,0,0,0,0,0,0,0,0,0,0,0,0,0,0,0,0,0,0,0,0,1.6775,1.6775,0,1.6777,1.6777,1.6777,1.6748,1.6747,1.6746,1.6745,1.6747,1.6748,1.6748,0,0,0,0,0,0,0,0,0,0,0,0,0,1.6742,1.6743,1.6775,1.6775,1.6775,1.6777,1.6777,1.6777,1.6748,1.6747,1.6746,1.6745,1.6747,1.6747,1.6748,0,0,0,0,0,0,0,0,0,0,0,0,0,1.6752,1.6743,1.6775,1.676,1.6759,1.6777,1.6777,1.6777,1.6748,1.6747,1.6745,1.6744,1.6746,1.6747,1.6749,1.678,0,0,1.6752,1.6753,0,0,0,0,0,0,0,0,1.6751,1.6753,1.6762,1.6761,1.676,1.6761,1.6766,1.6778,1.6748,1.6752,1.6745,1.6744,1.6752,1.6753,1.6756,1.678,1.678,1.6752,1.6753,1.6754,1.6754,0,0,0,0,0,0,0,1.6751,1.6753,1.6775,1.6762,1.6761,1.6753,1.6753,1.6768,1.6759,1.6752,1.675,1.675,1.6751,1.6755,1.6756,1.678,1.6752,1.6753,1.6754,1.6755,1.6828,1.6829,0,0,0,0,0,0,1.6752,1.6752,1.6775,1.6776,1.6753,1.6755,1.6755,1.6762,1.6759,1.6757,1.6751,1.6749,1.6754,1.6754,1.6756,1.6791,1.6754,1.6755,1.6755,1.6826,1.6828,1.6829,0,0,0,0,0,0,1.6752,1.6755,1.6775,1.6763,1.6765,1.6756,1.6765,1.6762,1.6766,1.6758,1.6756,1.6757,1.6753,1.6754,1.6774,1.679,1.6755,1.6756,1.6825,1.6827,1.6829,1.6862,0,0,0,0,0,0,1.6751,1.6755,1.6767,1.6764,1.6766,1.6794,1.6766,1.6763,1.6768,1.6765,1.6763,1.6761,1.6752,1.6772,1.6775,1.6791,1.6757,1.6823,1.6826,1.6828,1.6859,1.6864,1.6869,0,0,0,0,0,1.675,1.6777,1.6768,1.6771,1.6782,1.6795,1.6796,1.6785,1.677,1.6781,1.6776,1.6762,1.6788,1.6774,1.6777,1.6794,1.6822,1.6825,1.6828,1.6857,1.6863,1.6869,0,0,0,0,0,0,1.6782,1.6776,1.6766,1.6793,1.6795,1.679,1.6805,1.6792,1.6798,1.6795,1.678,1.678,1.6802,1.68,1.6785,1.6823,1.6802,1.6806,1.6823,1.683,1.6835,1.6834,1.6758,0,0,0,0,0,1.6792,1.6804,1.6798,1.6822,1.6823,1.6814,1.6819,1.681,1.6811,1.6812,1.6808,1.681,1.6818,1.6824,1.6832,1.6859,1.6857,1.6872,1.6877,1.6881,1.6884,1.6896,1.6902,1.6838,1.6838,1.6838,0,0,1.6814,1.6812,1.682,1.6828,1.6829,1.684,1.6815,1.6829,1.6837,1.6814,1.6832,1.6829,1.6829,1.6853,1.6863,1.6852,1.6901,1.6885,1.6888,1.6888,1.6899,1.6905,1.6911,1.684,1.684,1.684,0,0,1.6858,1.6858,1.6877,1.6878,1.6878,1.6872,1.6876,1.6873,1.687,1.6888,1.6871,1.688,1.6895,1.6895,1.6898,1.694,1.6926,1.6943,1.6969,1.6981,1.6986,1.699,1.7003,1.7008,1.6946,1.6946,1.6946,0,1.6884,1.6901,1.6889,1.6903,1.6906,1.6886,1.6904,1.6905,1.6909,1.6911,1.6899,1.6917,1.6916,1.6937,1.6947,1.6951,1.6954,1.6943,1.6986,1.699,1.6994,1.7007,1.7012,1.6948,1.6948,1.6948,1.6948,0,1.6932,1.6944,1.6959,1.6962,1.6967,1.6984,1.6973,1.6979,1.6969,1.6964,1.6981,1.6979,1.6985,1.6989,1.698,1.7009,1.7002,1.6989,1.6967,1.7002,1.7014,1.7018,1.6951,1.695,1.695,1.6949,0,0,1.6996,1.6991,1.6997,1.6997,1.6995,1.7004,1.7019,1.7024,1.7029,1.7032,1.7043,1.7056,1.7042,1.7045,1.7036,1.7046,1.7078,1.7031,1.7031,1.7038,1.7107,1.7116,1.7122,1.7069,1.707,1.707,1.7106,0,1.7038,1.7063,1.7051,1.7077,1.7087,1.7067,1.708,1.708,1.7074,1.7081,1.7076,1.7084,1.7067,1.7068,1.7078,1.7072,1.7091,1.7069,1.7077,1.7078,1.7076,1.7128,1.7138,1.7172,1.7111,1.7112,1.7112,0,1.7089,1.7093,1.712,1.7114,1.7118,1.713,1.7132,1.714,1.7139,1.7134,1.7136,1.7124,1.7137,1.7117,1.7133,1.7119,1.7121,1.7119,1.712,1.7119,1.7096,1.7127,1.7183,1.7188,1.712,1.7119,1.7118,0,1.7131,1.7143,1.716,1.7161,1.7156,1.7164,1.7162,1.716,1.7163,1.7166,1.7168,1.7172,1.7174,1.7177,1.7166,1.7153,1.7184,1.7163,1.7179,1.7179,1.7185,1.7185,1.7241,1.719,1.719,1.719,1.719,0,1.7177,1.7194,1.7178,1.7188,1.7206,1.7192,1.7209,1.7206,1.7204,1.7212,1.7196,1.7204,1.7189,1.7196,1.7187,1.7201,1.7203,1.7198,1.7195,1.7199,1.7199,1.7199,1.7196,1.7191,1.7191,1.719,1.719,0,1.7226,1.7217,1.7233,1.7227,1.7226,1.7238,1.7232,1.7241,1.7235,1.7245,1.7247,1.7237,1.7243,1.7232,1.7238,1.7232,1.7251,1.7245,1.7251,1.7249,1.7264,1.7262,1.7321,1.7328,1.7274,1.7275,1.7275,0,1.7256,1.7268,1.7262,1.7266,1.7265,1.7273,1.7276,1.7263,1.7266,1.7265,1.7274,1.7279,1.7282,1.7293,1.7285,1.7289,1.7282,1.7303,1.7283,1.7285,1.728,1.7279,1.7279,1.7306,1.7307,1.7307,1.7308,0,1.7308,1.7302,1.7307,1.731,1.7314,1.7316,1.7317,1.7321,1.7307,1.7312,1.7318,1.732,1.7325,1.733,1.7332,1.7329,1.7316,1.7314,1.7318,1.7321,1.7323,1.732,1.726,1.7313,1.7312,1.7312,1.7312,1.7311,1.7346,1.7355,1.7352,1.7358,1.7357,1.7357,1.7365,1.7359,1.7364,1.7366,1.7358,1.7366,1.7363,1.7364,1.7362,1.7368,1.7358,1.7364,1.7365,1.7366,1.7368,1.7323,1.7368,1.7368,1.7368,1.7368,1.7368,0,1.7396,1.7393,1.7398,1.7399,1.7403,1.7391,1.739,1.7394,1.7401,1.74,1.7403,1.7409,1.7413,1.7406,1.7408,1.7414,1.7408,1.7415,1.7413,1.7413,1.7377,1.7373,1.742,1.742,1.742,1.742,1.742,1.742,1.7422,1.7436,1.743,1.7442,1.7439,1.7446,1.7446,1.7446,1.7445,1.7452,1.7456,1.7451,1.7446,1.7448,1.7451,1.7449,1.745,1.7459,1.7454,1.7421,1.7415,1.7411,1.7406,1.7459,1.746,1.7489,1.7489,1.7489]},{"header":{"parameterUnit":"m.s-1","parameterCategory":1,"la1":30.2991,"la2":30.254,"lo1":-89.0895,"lo2":-89.0444,"dy":0.0017,"dx":0.0017,"nx":28,"ny":28,"refTime":"2025-05-19T03:00:00:Z","depth":0,"parameterNumber":3,"parameterNumberName":"V-component_of_WINDS"},"data":[0,0,0,0,0,0,0,0,0,0,0,0,0,0,0,0,0,0,0,0,0,0,0,0,0,0,0,0,0,0,0,0,0,0,0,0,0,0,0,0,0,0,0,0,0,0,0,0,0,0,0,0,0,0,0,0,0,0,4.6209,4.6208,0,4.618,4.618,4.618,4.6105,4.6103,4.6101,4.61,4.6073,4.6074,4.6074,0,0,0,0,0,0,0,0,0,0,0,0,0,4.6201,4.6201,4.6209,4.6208,4.6208,4.618,4.618,4.618,4.6105,4.6103,4.6101,4.6099,4.6073,4.6073,4.6074,0,0,0,0,0,0,0,0,0,0,0,0,0,4.6192,4.6201,4.6209,4.6167,4.6163,4.6181,4.618,4.618,4.6105,4.6103,4.6101,4.6098,4.6072,4.6073,4.6074,4.613,0,0,4.6078,4.6079,0,0,0,0,0,0,0,0,4.6192,4.6192,4.6174,4.617,4.6166,4.6144,4.6167,4.6163,4.6106,4.6128,4.61,4.6097,4.6098,4.6097,4.6097,4.6129,4.6128,4.6078,4.6079,4.6079,4.608,0,0,0,0,0,0,0,4.6193,4.6193,4.6198,4.6174,4.6169,4.6151,4.6147,4.6166,4.6127,4.6125,4.612,4.6117,4.6096,4.6096,4.6096,4.6127,4.6078,4.6079,4.608,4.608,4.6203,4.6205,0,0,0,0,0,0,4.6199,4.6194,4.6198,4.6197,4.6173,4.6153,4.6149,4.6153,4.6126,4.612,4.612,4.6114,4.6096,4.6095,4.6095,4.6158,4.6079,4.608,4.6081,4.62,4.6204,4.6206,0,0,0,0,0,0,4.6199,4.62,4.62,4.6194,4.6192,4.6156,4.6162,4.6154,4.6154,4.6122,4.6115,4.6127,4.6094,4.6093,4.6122,4.6156,4.6081,4.6082,4.6197,4.6201,4.6205,4.6285,0,0,0,0,0,0,4.6199,4.6201,4.6221,4.6195,4.6193,4.6227,4.6164,4.6155,4.6156,4.6149,4.6127,4.6121,4.6092,4.612,4.6123,4.6156,4.6083,4.6194,4.6199,4.6204,4.6279,4.6291,4.6301,0,0,0,0,0,4.6199,4.6245,4.6222,4.6223,4.6217,4.6229,4.6228,4.6192,4.6159,4.618,4.6159,4.6122,4.6152,4.6124,4.6126,4.616,4.6192,4.6198,4.6203,4.6274,4.6288,4.6301,0,0,0,0,0,0,4.6276,4.6241,4.6215,4.6253,4.6245,4.6216,4.624,4.6209,4.6209,4.6202,4.6159,4.6154,4.6189,4.6178,4.6147,4.6213,4.6166,4.6172,4.6219,4.6232,4.6243,4.6245,4.6084,0,0,0,0,0,4.6298,4.6309,4.6278,4.6315,4.6312,4.6277,4.6281,4.6254,4.6243,4.6239,4.6221,4.6212,4.622,4.6225,4.623,4.6277,4.6271,4.6302,4.6313,4.6322,4.6328,4.6352,4.6365,4.6225,4.6225,4.6225,0,0,4.6342,4.6324,4.6334,4.633,4.632,4.6333,4.6274,4.6291,4.6301,4.6242,4.6267,4.6254,4.6242,4.6279,4.6295,4.6271,4.6366,4.6329,4.6337,4.6338,4.6359,4.6373,4.6384,4.6229,4.6228,4.6228,0,0,4.643,4.6417,4.6447,4.6438,4.6423,4.64,4.6407,4.6384,4.6372,4.6397,4.6353,4.6365,4.6378,4.6371,4.637,4.6456,4.6422,4.6459,4.6517,4.6541,4.6552,4.6561,4.6592,4.6604,4.6465,4.6466,4.6466,0,4.6487,4.6505,4.6466,4.6485,4.6485,4.6432,4.6462,4.6455,4.6444,4.6445,4.6418,4.6434,4.6422,4.6458,4.6479,4.648,4.6487,4.6461,4.6553,4.6562,4.6571,4.66,4.6611,4.647,4.647,4.6469,4.6469,0,4.6576,4.6589,4.6615,4.6604,4.6607,4.6632,4.6597,4.6604,4.6578,4.6558,4.6585,4.6569,4.6569,4.6576,4.6551,4.6608,4.6594,4.6561,4.6513,4.6589,4.6616,4.6626,4.6477,4.6475,4.6474,4.6472,0,0,4.671,4.6678,4.6688,4.6683,4.6663,4.6673,4.6696,4.6696,4.6704,4.6698,4.6716,4.673,4.6699,4.6697,4.6671,4.6692,4.6761,4.6656,4.6655,4.6676,4.6824,4.6849,4.6862,4.6739,4.6741,4.6743,4.6825,0,4.6792,4.6828,4.6794,4.6837,4.6849,4.68,4.682,4.6811,4.6793,4.6801,4.6782,4.6792,4.6751,4.675,4.6768,4.6749,4.679,4.6743,4.6756,4.6757,4.676,4.6876,4.6901,4.698,4.6835,4.6837,4.6838,0,4.6892,4.6891,4.6935,4.6913,4.6917,4.6935,4.6933,4.6942,4.6931,4.6916,4.6915,4.6883,4.6904,4.6858,4.6888,4.6856,4.686,4.6851,4.6853,4.6853,4.6802,4.6878,4.7004,4.7016,4.6854,4.6852,4.6851,0,4.6986,4.6995,4.7022,4.7019,4.6994,4.7009,4.6999,4.6986,4.6988,4.6987,4.6988,4.699,4.6991,4.6993,4.6963,4.6932,4.6996,4.6947,4.6985,4.6986,4.7,4.7,4.7129,4.7004,4.7004,4.7004,4.7003,0,4.708,4.7109,4.7063,4.708,4.7112,4.7073,4.7105,4.7091,4.708,4.7093,4.7051,4.7065,4.7024,4.7034,4.7011,4.7039,4.704,4.7029,4.7023,4.7033,4.7034,4.7034,4.7028,4.7007,4.7006,4.7005,4.7005,0,4.7189,4.716,4.7186,4.7161,4.7155,4.718,4.7158,4.7173,4.7153,4.7171,4.7173,4.7142,4.7152,4.7122,4.7127,4.7111,4.7152,4.7137,4.7156,4.7151,4.719,4.7187,4.7323,4.7339,4.7205,4.7206,4.7207,0,4.7251,4.7272,4.7249,4.7255,4.7248,4.7258,4.726,4.7224,4.7228,4.7218,4.7234,4.7241,4.7243,4.7262,4.724,4.7244,4.7228,4.7275,4.7228,4.7238,4.7228,4.7227,4.7229,4.7285,4.7287,4.7288,4.7289,0,4.7365,4.7349,4.7354,4.7354,4.7358,4.7356,4.7352,4.736,4.732,4.7328,4.7337,4.7339,4.7344,4.7351,4.7351,4.7341,4.7309,4.7304,4.7313,4.7323,4.7333,4.7328,4.7182,4.7301,4.73,4.7299,4.7298,4.7298,4.7451,4.7468,4.7454,4.7461,4.7454,4.7451,4.7464,4.7446,4.7453,4.7453,4.7432,4.7446,4.7435,4.7431,4.7425,4.7436,4.7414,4.7427,4.743,4.7434,4.744,4.7332,4.7436,4.7435,4.7435,4.7435,4.7434,0,4.7562,4.7551,4.7558,4.7553,4.7559,4.7528,4.7522,4.7529,4.7541,4.7534,4.7537,4.7548,4.7555,4.7534,4.7538,4.7551,4.7536,4.7553,4.7551,4.755,4.746,4.7451,4.7565,4.7565,4.7565,4.7565,4.7565,4.7565,4.762,4.7647,4.763,4.7653,4.7641,4.7654,4.7653,4.7651,4.7644,4.7659,4.7664,4.765,4.7637,4.764,4.7645,4.7639,4.7642,4.7664,4.7653,4.7569,4.7556,4.7544,4.7536,4.7665,4.7666,4.7742,4.7743,4.7744]}]]